Weather History for KVWU - April, 2013

Change the Weather History Date:

Thursday, April 11, 2013

  Actual Average (KBDE) Record (KBDE)
Temperature  
Mean Temperature 29 °F -  
Max Temperature 32 °F 49 °F 78 °F (1968)
Min Temperature 26 °F 24 °F -4 °F (1940)
Degree Days  
Heating Degree Days 36    
Moisture  
Dew Point 20 °F    
Average Humidity 71    
Maximum Humidity 86    
Minimum Humidity 48    
Precipitation  
Precipitation 0.00 in - - ()
Sea Level Pressure  
Sea Level Pressure 29.98 in    
Wind  
Wind Speed 11 mph (ENE)    
Max Wind Speed 20 mph    
Max Gust Speed 25 mph    
Visibility 9 miles    
Events Snow    
Averages and records for this station are not official NWS values.
T = Trace of Precipitation, MM = Missing Value Source: NWS Daily Summary

Daily Weather History Graph

Daily Weather History Graph

Search for Another Location

Airport or City:

Trip Planner

Search our weather history database for the weather conditions in past years. The results will help you decide how hot, cold, wet, or windy it might be!

Date:

Astronomy

Apr. 11, 2013 Rise Set
Actual Time 6:35 AM CDT 8:03 PM CDT
Civil Twilight 6:03 AM CDT 8:35 PM CDT
Nautical Twilight 5:24 AM CDT 9:15 PM CDT
Astronomical Twilight 4:41 AM CDT 9:57 PM CDT
Moon 7:01 AM CDT (4/11) 9:47 PM CDT (4/11)
Length of Visible Light 14h 32m
Length of Day
13h 27m
New Moon, 2% of the Moon is Illuminated
Apr 11
New Moon
Apr 18
First Quarter
Apr 25
Full
May 2
Last Quarter
May 9
New

Hourly Weather History & Observations

Time (CDT) Temp. Windchill Dew Point Humidity Pressure Visibility Wind Dir Wind Speed Gust Speed Precip Events Conditions
12:07 AM 32.0 °F 24.8 °F 14.0 °F 48% 30.09 in 10.0 mi ENE 8.1 mph - N/A   Clear
12:28 AM 30.2 °F 22.6 °F 15.8 °F 55% 30.09 in 10.0 mi ENE 8.1 mph - N/A   Clear
12:47 AM 30.2 °F 21.3 °F 15.8 °F 55% 30.08 in 10.0 mi ENE 10.4 mph - N/A   Clear
1:07 AM 30.2 °F 21.9 °F 15.8 °F 55% 30.08 in 10.0 mi ENE 9.2 mph - N/A   Unknown
1:28 AM 30.2 °F 21.3 °F 15.8 °F 55% 30.07 in 10.0 mi ENE 10.4 mph - N/A   Unknown
1:47 AM 30.2 °F 21.3 °F 14.0 °F 51% 30.06 in 10.0 mi ENE 10.4 mph - N/A   Unknown
2:08 AM 30.2 °F 23.4 °F 15.8 °F 55% 30.07 in 10.0 mi ENE 6.9 mph - N/A   Unknown
2:28 AM 28.4 °F 21.2 °F 15.8 °F 59% 30.07 in 10.0 mi ENE 6.9 mph - N/A   Clear
2:47 AM 28.4 °F 22.2 °F 15.8 °F 59% 30.06 in 10.0 mi ENE 5.8 mph - N/A   Clear
3:07 AM 28.4 °F 22.2 °F 15.8 °F 59% 30.06 in 10.0 mi NE 5.8 mph - N/A   Clear
3:28 AM 26.6 °F 19.1 °F 15.8 °F 64% 30.05 in 10.0 mi NE 6.9 mph - N/A   Scattered Clouds
3:47 AM 26.6 °F 18.2 °F 15.8 °F 64% 30.04 in 10.0 mi NE 8.1 mph - N/A   Unknown
4:08 AM 26.6 °F 19.1 °F 15.8 °F 64% 30.04 in 10.0 mi NE 6.9 mph - N/A   Unknown
4:27 AM 26.6 °F 20.0 °F 15.8 °F 64% 30.04 in 10.0 mi NE 5.8 mph - N/A   Unknown
4:47 AM 26.6 °F 18.2 °F 17.6 °F 69% 30.03 in 10.0 mi NE 8.1 mph - N/A   Unknown
5:08 AM 26.6 °F 18.2 °F 17.6 °F 69% 30.03 in 10.0 mi NE 8.1 mph - N/A   Mostly Cloudy
5:28 AM 26.6 °F 19.1 °F 17.6 °F 69% 30.02 in 10.0 mi NE 6.9 mph - N/A   Scattered Clouds
5:47 AM 28.4 °F 19.1 °F 15.8 °F 59% 30.01 in 10.0 mi ENE 10.4 mph - N/A   Mostly Cloudy
6:08 AM 28.4 °F 19.1 °F 15.8 °F 59% 30.01 in 10.0 mi ENE 10.4 mph - N/A   Mostly Cloudy
6:27 AM 28.4 °F 17.5 °F 15.8 °F 59% 30.00 in 10.0 mi ENE 13.8 mph 18.4 mph N/A   Scattered Clouds
6:47 AM 26.6 °F 14.7 °F 15.8 °F 64% 29.99 in 10.0 mi ENE 15.0 mph - N/A   Scattered Clouds
7:08 AM 26.6 °F 13.8 °F 15.8 °F 64% 29.98 in 10.0 mi ENE 17.3 mph 21.9 mph N/A   Scattered Clouds
7:27 AM 26.6 °F 16.2 °F 15.8 °F 64% 29.99 in 10.0 mi ENE 11.5 mph 20.7 mph N/A   Clear
7:47 AM 26.6 °F 14.7 °F 15.8 °F 64% 29.99 in 10.0 mi ENE 15.0 mph 18.4 mph N/A   Clear
8:27 AM 26.6 °F 15.7 °F 15.8 °F 64% 29.98 in 10.0 mi ENE 12.7 mph 23.0 mph N/A   Clear
8:47 AM 26.6 °F 13.1 °F 15.8 °F 64% 29.98 in 10.0 mi ENE 19.6 mph 25.3 mph N/A   Clear
9:07 AM 26.6 °F 15.2 °F 14.0 °F 59% 29.97 in 10.0 mi ENE 13.8 mph 20.7 mph N/A   Clear
9:27 AM 26.6 °F 13.8 °F 15.8 °F 64% 29.96 in 10.0 mi ENE 17.3 mph 21.9 mph N/A   Clear
9:48 AM 26.6 °F 13.4 °F 14.0 °F 59% 29.97 in 10.0 mi ENE 18.4 mph 21.9 mph N/A   Clear
10:07 AM 28.4 °F 17.5 °F 15.8 °F 59% 29.97 in 10.0 mi ENE 13.8 mph 19.6 mph N/A   Clear
10:27 AM 28.4 °F 16.2 °F 15.8 °F 59% 29.97 in 10.0 mi ENE 17.3 mph 23.0 mph N/A   Unknown
10:48 AM 28.4 °F 18.0 °F 15.8 °F 59% 29.98 in 10.0 mi ENE 12.7 mph 21.9 mph N/A   Unknown
11:07 AM 28.4 °F 16.2 °F 15.8 °F 59% 29.98 in 10.0 mi ENE 17.3 mph 23.0 mph N/A   Unknown
11:27 AM 30.2 °F 19.8 °F 15.8 °F 55% 29.98 in 10.0 mi ENE 13.8 mph 19.6 mph N/A   Unknown
12:07 PM 30.2 °F 18.9 °F 15.8 °F 55% 29.97 in 10.0 mi East 16.1 mph 21.9 mph N/A   Unknown
12:27 PM 30.2 °F 19.3 °F 15.8 °F 55% 29.97 in 10.0 mi ENE 15.0 mph 18.4 mph N/A   Scattered Clouds
12:48 PM 30.2 °F 19.8 °F 15.8 °F 55% 29.97 in 10.0 mi ENE 13.8 mph 18.4 mph N/A   Mostly Cloudy
1:07 PM 30.2 °F 21.3 °F 15.8 °F 55% 29.98 in 10.0 mi ENE 10.4 mph 19.6 mph N/A   Scattered Clouds
1:27 PM 30.2 °F 19.8 °F 17.6 °F 60% 29.98 in 3.0 mi East 13.8 mph 21.9 mph N/A Snow Light Snow
1:48 PM 28.4 °F 17.0 °F 21.2 °F 74% 29.99 in 0.8 mi ENE 15.0 mph 19.6 mph N/A Snow Light Snow
2:07 PM 28.4 °F 18.0 °F 23.0 °F 80% 29.98 in 0.5 mi ENE 12.7 mph 21.9 mph N/A Snow Light Snow
2:27 PM 28.4 °F 17.0 °F 24.8 °F 86% 29.98 in 1.8 mi ENE 15.0 mph 23.0 mph N/A Snow Light Snow
2:48 PM 28.4 °F 17.5 °F 24.8 °F 86% 29.97 in 2.5 mi NE 13.8 mph 25.3 mph N/A Snow Light Snow
3:07 PM 28.4 °F 17.5 °F 24.8 °F 86% 29.96 in 4.0 mi NE 13.8 mph 20.7 mph N/A   Haze
3:27 PM 28.4 °F 16.6 °F 24.8 °F 86% 29.95 in 4.0 mi NE 16.1 mph 21.9 mph N/A Snow Light Snow
3:48 PM 28.4 °F 15.4 °F 24.8 °F 86% 29.94 in 4.0 mi NE 19.6 mph 25.3 mph N/A Snow Light Snow
4:07 PM 28.4 °F 16.6 °F 24.8 °F 86% 29.94 in 10.0 mi NE 16.1 mph 21.9 mph N/A   Overcast
4:28 PM 28.4 °F 16.6 °F 24.8 °F 86% 29.94 in 10.0 mi ENE 16.1 mph 23.0 mph N/A   Overcast
4:47 PM 28.4 °F 16.6 °F 24.8 °F 86% 29.94 in 10.0 mi NE 16.1 mph 19.6 mph N/A   Overcast
5:07 PM 28.4 °F 15.4 °F 23.0 °F 80% 29.94 in 7.0 mi ENE 19.6 mph 24.2 mph N/A   Overcast
5:28 PM 28.4 °F 16.2 °F 24.8 °F 86% 29.93 in 10.0 mi NE 17.3 mph 21.9 mph N/A   Overcast
5:47 PM 28.4 °F 16.2 °F 23.0 °F 80% 29.93 in 10.0 mi ENE 17.3 mph 23.0 mph N/A   Overcast
6:07 PM 28.4 °F 17.0 °F 23.0 °F 80% 29.93 in 10.0 mi ENE 15.0 mph 20.7 mph N/A   Overcast
6:28 PM 28.4 °F 17.0 °F 23.0 °F 80% 29.93 in 10.0 mi ENE 15.0 mph 19.6 mph N/A   Overcast
6:47 PM 28.4 °F 17.0 °F 23.0 °F 80% 29.94 in 10.0 mi ENE 15.0 mph 25.3 mph N/A   Overcast
7:07 PM 28.4 °F 17.0 °F 23.0 °F 80% 29.94 in 7.0 mi ENE 15.0 mph 21.9 mph N/A   Overcast
7:28 PM 28.4 °F 17.5 °F 24.8 °F 86% 29.93 in 10.0 mi NE 13.8 mph 21.9 mph N/A   Overcast
7:47 PM 28.4 °F 17.5 °F 24.8 °F 86% 29.92 in 7.0 mi NE 13.8 mph 21.9 mph N/A   Overcast
8:07 PM 28.4 °F 16.6 °F 24.8 °F 86% 29.92 in 10.0 mi NE 16.1 mph 21.9 mph N/A   Overcast
8:27 PM 28.4 °F 17.5 °F 24.8 °F 86% 29.92 in 10.0 mi NE 13.8 mph 19.6 mph N/A   Overcast
8:47 PM 28.4 °F 17.0 °F 24.8 °F 86% 29.92 in 10.0 mi ENE 15.0 mph 19.6 mph N/A   Overcast
9:07 PM 28.4 °F 18.0 °F 24.8 °F 86% 29.92 in 10.0 mi NE 12.7 mph 23.0 mph N/A   Overcast
9:27 PM 28.4 °F 17.5 °F 24.8 °F 86% 29.92 in 10.0 mi NE 13.8 mph 18.4 mph N/A   Overcast
9:47 PM 28.4 °F 18.0 °F 24.8 °F 86% 29.92 in 10.0 mi ENE 12.7 mph - N/A   Overcast
10:07 PM 28.4 °F 17.5 °F 24.8 °F 86% 29.92 in 10.0 mi ENE 13.8 mph - N/A   Overcast
10:27 PM 28.4 °F 17.5 °F 24.8 °F 86% 29.92 in 10.0 mi ENE 13.8 mph 18.4 mph N/A   Overcast
10:47 PM 28.4 °F 18.5 °F 24.8 °F 86% 29.91 in 10.0 mi NE 11.5 mph 16.1 mph N/A   Overcast
11:08 PM 28.4 °F 18.5 °F 24.8 °F 86% 29.91 in 10.0 mi NE 11.5 mph 18.4 mph N/A   Overcast
11:27 PM 28.4 °F 18.0 °F 24.8 °F 86% 29.90 in 7.0 mi NE 12.7 mph 17.3 mph N/A Snow Light Snow
11:47 PM 28.4 °F 18.5 °F 24.8 °F 86% 29.90 in 10.0 mi NE 11.5 mph 16.1 mph N/A Snow Light Snow